Charleville, France

10:33 AM CET on December 11, 2016 (GMT +0100)
Charleville

Weather History for LFQV - March, 2014

Change the Weather History Date:

Monday, March 10, 2014

  Actual Average Record
Temperature  
Mean Temperature 46 °F -  
Max Temperature 67 °F - - ()
Min Temperature 26 °F - - ()
Degree Days  
Heating Degree Days 18    
Moisture  
Dew Point 33 °F    
Average Humidity 58    
Maximum Humidity 98    
Minimum Humidity 15    
Precipitation  
Precipitation 0.00 in - - ()
Sea Level Pressure  
Sea Level Pressure 30.27 in    
Wind  
Wind Speed 3 mph ()    
Max Wind Speed 13 mph    
Max Gust Speed -    
Visibility 4.1 miles    
Events Fog    
T = Trace of Precipitation, MM = Missing Value Source: Averaged Metar Reports

Daily Weather History Graph

Daily Weather History Graph

Search for Another Location

Airport or City:

Trip Planner

Search our weather history database for the weather conditions in past years. The results will help you decide how hot, cold, wet, or windy it might be!

Date:

Astronomy

Mar. 10, 2014 Rise Set
Actual Time 7:06 AM CET 6:38 PM CET
Civil Twilight 6:34 AM CET 7:10 PM CET
Nautical Twilight 5:56 AM CET 7:47 PM CET
Astronomical Twilight 5:19 AM CET 8:25 PM CET
Moon 12:45 PM CET (3/10) 3:30 AM CET (3/10)
Length of Visible Light 12h 36m
Length of Day
11h 32m
Waxing Gibbous, 68% of the Moon is Illuminated
Mar 10
Waxing Gibbous
Mar 16
Full
Mar 24
Last Quarter
Mar 30
New
Apr 7
First Quarter

Hourly Weather History & Observations

Time (CET) Temp. Dew Point Humidity Pressure Visibility Wind Dir Wind Speed Gust Speed Precip Events Conditions
12:00 AM 33 °F 32 °F 94% 30.34 in 4 mi East 1.2 mph - -   Clear
1:00 AM 32 °F 31 °F 94% 30.33 in 1 mi Calm Calm - -   Mist
2:00 AM 32 °F 30 °F 91% 30.34 in 2 mi NW 1.2 mph - -   Mist
3:00 AM 30 °F 29 °F 94% 30.33 in 1 mi Calm Calm - -   Mist
4:00 AM 28 °F 26 °F 91% 30.32 in 0 mi SSE 2.3 mph - - Fog Fog
5:00 AM 29 °F 28 °F 94% 30.32 in 2 mi WNW 2.3 mph - -   Mist
6:00 AM 28 °F 28 °F 98% 30.32 in 3 mi WNW 1.2 mph - -   Clear
7:00 AM 27 °F 26 °F 97% 30.31 in 0 mi Calm Calm - - Fog Fog
8:00 AM 30 °F 29 °F 95% 30.32 in 3 mi NW 2.3 mph - -   Mist
9:00 AM 37 °F 35 °F 89% 30.31 in 4 mi SSE 1.2 mph - -   Clear
10:00 AM 45 °F 38 °F 68% 30.29 in 6 mi WNW 1.2 mph - -   Clear
11:00 AM 54 °F 42 °F 53% 30.27 in 6 mi WNW 1.2 mph - -   Clear
12:00 PM 62 °F 37 °F 28% 30.23 in - South 2.3 mph - -  
1:00 PM 64 °F 36 °F 24% 30.21 in - WNW 3.5 mph - -  
2:00 PM 67 °F 34 °F 19% 30.19 in - NNE 9.2 mph - -  
3:00 PM 67 °F 31 °F 15% 30.18 in - NE 11.5 mph - -  
4:00 PM 66 °F 34 °F 19% 30.19 in - North 12.7 mph - -  
5:00 PM 65 °F 34 °F 21% 30.20 in - NNE 8.1 mph - -  
6:00 PM 62 °F 34 °F 24% 30.22 in - NNE 8.1 mph - -  
7:00 PM 57 °F 35 °F 32% 30.25 in 7 mi North 4.6 mph - -   Clear
8:00 PM 56 °F 34 °F 31% 30.26 in 8 mi NNE 4.6 mph - -   Clear
9:00 PM 53 °F 33 °F 35% 30.28 in 8 mi ENE 3.5 mph - -   Clear
10:00 PM 51 °F 34 °F 40% 30.28 in 8 mi NW 4.6 mph - -   Clear
11:00 PM 51 °F 34 °F 40% 30.29 in 7 mi WNW 4.6 mph - -   Clear